Jordan, MT

1:09 AM MST on December 16, 2017 (GMT -0700)
Jordan

Weather History for KJDN - December, 2014

Change the Weather History Date:

Sunday, December 14, 2014

  Actual Average Record
Temperature  
Mean Temperature 30 °F 19 °F  
Max Temperature 35 °F 32 °F 63 °F (1997)
Min Temperature 24 °F 6 °F -32 °F (1963)
Degree Days  
Heating Degree Days 35 46  
Month to date heating degree days 511 620  
Since 1 July heating degree days 2581 2638  
Cooling Degree Days 0 0  
Month to date cooling degree days 0 0  
Year to date cooling degree days 460 421  
Moisture  
Dew Point 28 °F    
Average Humidity 87    
Maximum Humidity 92    
Minimum Humidity 82    
Precipitation  
Precipitation 0.00 in 0.00 in 0.70 in (1917)
Month to date precipitation 0.08 0.10  
Year to date precipitation 13.53 12.48  
Snow  
Snow 0.00 in - - ()
Month to date snowfall 0.0  
Since 1 July snowfall 0.0  
Snow Depth 0.00 in    
Sea Level Pressure  
Sea Level Pressure 30.12 in    
Wind  
Wind Speed 17 mph (NNW)    
Max Wind Speed 24 mph    
Max Gust Speed 34 mph    
T = Trace of Precipitation, MM = Missing Value Source: NWS Daily Summary

Daily Weather History Graph

Daily Weather History Graph

Search for Another Location

Airport or City:

Trip Planner

Search our weather history database for the weather conditions in past years. The results will help you decide how hot, cold, wet, or windy it might be!

Date:

Astronomy

Dec. 14, 2014 Rise Set
Actual Time 7:47 AM MST 4:17 PM MST
Civil Twilight 7:11 AM MST 4:53 PM MST
Nautical Twilight 6:32 AM MST 5:32 PM MST
Astronomical Twilight 5:55 AM MST 6:09 PM MST
Moon No Moon Rise 12:15 PM MST (12/14)
Length of Visible Light 9h 41m
Length of Day
8h 30m
Waning Gibbous, 48% of the Moon is Illuminated
Dec 14
Waning Gibbous
Dec 21
New
Dec 28
First Quarter
Jan 4
Full
Jan 13
Last Quarter

Hourly Weather History & Observations

Time (MST) Temp. Windchill Dew Point Humidity Pressure Visibility Wind Dir Wind Speed Gust Speed Precip Events Conditions
12:48 AM 34.0 °F 24.2 °F 30.9 °F 89% 29.95 in - NW 15.0 mph 25.3 mph N/A   Unknown
1:48 AM 33.1 °F 23.4 °F 30.0 °F 89% 29.96 in - NW 13.8 mph - N/A   Unknown
2:48 AM 33.1 °F 21.5 °F 28.9 °F 85% 29.99 in - NW 19.6 mph - N/A   Unknown
3:48 AM 33.1 °F 21.2 °F 28.9 °F 85% 30.01 in - NW 20.7 mph 27.6 mph N/A   Unknown
4:48 AM 32.0 °F 19.5 °F 30.0 °F 92% 30.03 in - NW 21.9 mph 29.9 mph N/A   Unknown
5:48 AM 32.0 °F 21.6 °F 30.0 °F 92% 30.05 in - NW 15.0 mph 27.6 mph N/A   Unknown
6:48 AM 32.0 °F 20.8 °F 30.0 °F 92% 30.05 in - NW 17.3 mph - N/A   Unknown
7:48 AM 30.9 °F 18.7 °F 28.9 °F 92% 30.07 in - NNW 19.6 mph 26.5 mph N/A   Unknown
8:48 AM 30.9 °F 19.4 °F 28.9 °F 92% 30.09 in - NNW 17.3 mph - N/A   Unknown
9:48 AM 30.0 °F 17.9 °F 28.0 °F 92% 30.10 in - NNW 18.4 mph - N/A   Unknown
10:48 AM 30.9 °F 20.2 °F 28.0 °F 89% 30.12 in - NW 15.0 mph - N/A   Unknown
11:48 AM 30.0 °F 17.9 °F 27.0 °F 88% 30.12 in - NNW 18.4 mph - N/A   Unknown
12:48 PM 30.0 °F 18.7 °F 27.0 °F 88% 30.12 in - NNW 16.1 mph 26.5 mph N/A   Unknown
1:48 PM 30.9 °F 19.4 °F 28.0 °F 89% 30.12 in - NNW 17.3 mph - N/A   Unknown
2:48 PM 32.0 °F 19.8 °F 28.0 °F 85% 30.13 in - NNW 20.7 mph - N/A   Unknown
3:48 PM 30.9 °F 19.1 °F 28.0 °F 89% 30.15 in - North 18.4 mph 27.6 mph N/A   Unknown
4:48 PM 30.9 °F 20.7 °F 28.0 °F 89% 30.17 in - NNW 13.8 mph - N/A   Unknown
5:48 PM 30.9 °F 20.2 °F 27.0 °F 85% 30.19 in - NNW 15.0 mph - N/A   Unknown
6:48 PM 28.9 °F 16.5 °F 26.1 °F 89% 30.21 in - NNW 18.4 mph 25.3 mph N/A   Unknown
7:48 PM 28.0 °F 15.7 °F 25.0 °F 88% 30.23 in - NNW 17.3 mph 25.3 mph N/A   Unknown
8:48 PM 28.0 °F 16.1 °F 24.1 °F 85% 30.24 in - NNW 16.1 mph - N/A   Unknown
9:48 PM 27.0 °F 13.9 °F 24.1 °F 89% 30.25 in - NNW 18.4 mph 28.8 mph N/A   Unknown
10:48 PM 26.1 °F 12.7 °F 24.1 °F 92% 30.28 in - NNW 18.4 mph 26.5 mph N/A   Unknown
11:48 PM 25.0 °F 12.6 °F 23.0 °F 92% 30.30 in - NNW 15.0 mph - N/A   Unknown